[[{"header":{"parameterUnit":"m.s-1","parameterCategory":1,"la1":30.2991,"la2":30.254,"lo1":-89.0895,"lo2":-89.0444,"dy":0.0017,"dx":0.0017,"nx":28,"ny":28,"refTime":"2025-04-05T21:00:00:Z","depth":0,"parameterNumber":2,"parameterNumberName":"U-component_of_WINDS"},"data":[0,0,0,0,0,0,0,0,0,0,0,0,0,0,0,0,0,0,0,0,0,0,0,0,0,0,0,0,0,0,0,0,0,0,0,0,0,0,0,0,0,0,0,0,0,0,0,0,0,0,0,0,0,0,0,0,0,0,3.751,3.751,0,3.7498,3.7498,3.7498,3.7443,3.7441,3.744,3.7439,3.7428,3.7428,3.7429,0,0,0,0,0,0,0,0,0,0,0,0,0,3.7487,3.7487,3.751,3.751,3.751,3.7498,3.7498,3.7498,3.7443,3.7441,3.744,3.7438,3.7427,3.7428,3.7429,0,0,0,0,0,0,0,0,0,0,0,0,0,3.7488,3.7488,3.751,3.7481,3.7478,3.7498,3.7498,3.7498,3.7443,3.7441,3.7439,3.7438,3.7427,3.7428,3.743,3.7477,0,0,3.7434,3.7434,0,0,0,0,0,0,0,0,3.7488,3.7489,3.7485,3.7483,3.748,3.747,3.7486,3.7491,3.7444,3.7457,3.7439,3.7437,3.7443,3.7443,3.7445,3.7477,3.7476,3.7434,3.7435,3.7435,3.7436,0,0,0,0,0,0,0,3.7488,3.7489,3.7505,3.7485,3.7482,3.7469,3.7467,3.7486,3.7461,3.7455,3.7451,3.7451,3.7441,3.7444,3.7445,3.7476,3.7434,3.7435,3.7436,3.7436,3.7547,3.755,0,0,0,0,0,0,3.7492,3.749,3.7506,3.7505,3.7479,3.7471,3.7469,3.7475,3.7461,3.7457,3.7452,3.7448,3.7443,3.7443,3.7444,3.7499,3.7435,3.7437,3.7437,3.7545,3.7548,3.755,0,0,0,0,0,0,3.7492,3.7494,3.7506,3.7496,3.7497,3.7474,3.7481,3.7476,3.7478,3.7458,3.7454,3.746,3.7441,3.7442,3.747,3.7498,3.7437,3.7438,3.7543,3.7546,3.7549,3.7611,0,0,0,0,0,0,3.7491,3.7494,3.7511,3.7497,3.7498,3.7532,3.7483,3.7477,3.7481,3.7475,3.7464,3.746,3.744,3.7468,3.7471,3.7499,3.744,3.754,3.7544,3.7548,3.7606,3.7615,3.7624,0,0,0,0,0,3.7491,3.7529,3.7512,3.7515,3.7519,3.7533,3.7534,3.7509,3.7483,3.7501,3.7488,3.7461,3.7495,3.7471,3.7474,3.7503,3.7538,3.7543,3.7548,3.7602,3.7614,3.7623,0,0,0,0,0,0,3.7547,3.7526,3.7508,3.7543,3.754,3.7524,3.7545,3.7522,3.7527,3.7521,3.7491,3.7489,3.7521,3.7515,3.7489,3.7549,3.7512,3.7518,3.7552,3.7563,3.7572,3.7572,3.7441,0,0,0,0,0,3.7563,3.7577,3.7558,3.7591,3.7591,3.7569,3.7574,3.7555,3.7552,3.755,3.754,3.7537,3.7548,3.7555,3.7563,3.7605,3.7602,3.7627,3.7636,3.7643,3.7648,3.7671,3.7682,3.7566,3.7566,3.7566,0,0,3.7598,3.7588,3.7598,3.7602,3.7598,3.7613,3.7568,3.7585,3.7596,3.7553,3.7578,3.7571,3.7566,3.7602,3.7617,3.7597,3.768,3.7649,3.7655,3.7656,3.7677,3.7688,3.7698,3.7569,3.7569,3.7568,0,0,3.7667,3.7661,3.7688,3.7686,3.768,3.7665,3.7672,3.766,3.7653,3.7678,3.7646,3.766,3.7678,3.7676,3.7678,3.775,3.7725,3.7754,3.78,3.7822,3.7831,3.7839,3.7866,3.7875,3.7759,3.7759,3.7759,0,3.771,3.7731,3.7705,3.7725,3.7728,3.769,3.7718,3.7717,3.7714,3.7718,3.7696,3.7719,3.7714,3.7748,3.7766,3.7769,3.7776,3.7754,3.7832,3.784,3.7847,3.7872,3.7881,3.7763,3.7762,3.7762,3.7761,0,3.7785,3.7801,3.7823,3.7822,3.7828,3.7852,3.783,3.7839,3.7821,3.7809,3.7836,3.7828,3.7835,3.7842,3.7824,3.7875,3.7863,3.7838,3.7799,3.7862,3.7885,3.7894,3.7768,3.7766,3.7765,3.7764,0,0,3.7889,3.7874,3.7883,3.7883,3.7875,3.7886,3.791,3.7916,3.7925,3.7925,3.7944,3.7961,3.7938,3.794,3.7922,3.7942,3.8001,3.7914,3.7914,3.7931,3.8057,3.8076,3.8087,3.7984,3.7986,3.7987,3.8058,0,3.7956,3.7993,3.7971,3.8012,3.8027,3.7992,3.8012,3.801,3.8,3.8011,3.8,3.8013,3.7981,3.7983,3.8001,3.799,3.8026,3.7984,3.8002,3.8003,3.8004,3.8099,3.8119,3.8185,3.8066,3.8068,3.8069,0,3.8038,3.8043,3.8086,3.8076,3.8082,3.81,3.8105,3.8116,3.8114,3.8105,3.8109,3.8086,3.8109,3.8072,3.8103,3.8076,3.8082,3.8078,3.808,3.808,3.8039,3.8102,3.8206,3.8216,3.8082,3.8081,3.808,0,3.811,3.8127,3.8155,3.8156,3.8146,3.816,3.8156,3.8152,3.8158,3.8162,3.8166,3.8174,3.8178,3.8185,3.8165,3.814,3.82,3.8161,3.8194,3.8194,3.8207,3.8207,3.8313,3.8212,3.8212,3.8212,3.8211,0,3.8187,3.8215,3.8187,3.8204,3.8235,3.821,3.8241,3.8234,3.823,3.8246,3.8217,3.8233,3.8206,3.8219,3.8205,3.8233,3.8235,3.823,3.8225,3.8232,3.8233,3.8235,3.823,3.8214,3.8214,3.8213,3.8213,0,3.8272,3.8254,3.8283,3.8271,3.8269,3.8292,3.8283,3.8299,3.8287,3.8308,3.8311,3.8294,3.8308,3.829,3.8302,3.8292,3.8331,3.832,3.8332,3.8329,3.8363,3.836,3.8475,3.8489,3.8379,3.838,3.838,0,3.8322,3.8342,3.8334,3.8342,3.8341,3.8355,3.8361,3.8338,3.8346,3.8345,3.8362,3.8374,3.8382,3.8407,3.8395,3.8405,3.8394,3.8433,3.8395,3.8402,3.8395,3.8394,3.8396,3.8441,3.8442,3.8443,3.8444,0,3.8413,3.8404,3.8414,3.8421,3.843,3.8434,3.8437,3.8446,3.8422,3.8432,3.8447,3.8453,3.8467,3.8479,3.8486,3.8483,3.846,3.8457,3.8465,3.8472,3.8478,3.8475,3.8354,3.8454,3.8453,3.8452,3.8452,3.8451,3.8482,3.8499,3.8496,3.8508,3.8508,3.8512,3.8527,3.8518,3.8529,3.8538,3.8524,3.8542,3.8541,3.8548,3.8548,3.8562,3.8545,3.8557,3.856,3.8563,3.8568,3.8476,3.8564,3.8563,3.8563,3.8563,3.8563,0,3.8572,3.8568,3.858,3.8585,3.8595,3.8573,3.8576,3.8586,3.8602,3.8603,3.8612,3.8629,3.8642,3.8632,3.8642,3.8656,3.8646,3.866,3.8658,3.8658,3.8583,3.8575,3.8668,3.8668,3.8668,3.8668,3.8668,3.8668,3.8619,3.8647,3.8638,3.8667,3.8663,3.8681,3.8684,3.8688,3.8688,3.8709,3.8719,3.8713,3.8709,3.872,3.8731,3.8728,3.8733,3.875,3.8744,3.8674,3.8663,3.8653,3.8646,3.8752,3.8752,3.8817,3.8818,3.8819]},{"header":{"parameterUnit":"m.s-1","parameterCategory":1,"la1":30.2991,"la2":30.254,"lo1":-89.0895,"lo2":-89.0444,"dy":0.0017,"dx":0.0017,"nx":28,"ny":28,"refTime":"2025-04-05T21:00:00:Z","depth":0,"parameterNumber":3,"parameterNumberName":"V-component_of_WINDS"},"data":[0,0,0,0,0,0,0,0,0,0,0,0,0,0,0,0,0,0,0,0,0,0,0,0,0,0,0,0,0,0,0,0,0,0,0,0,0,0,0,0,0,0,0,0,0,0,0,0,0,0,0,0,0,0,0,0,0,0,-5.5142,-5.5142,0,-5.5194,-5.5194,-5.5195,-5.5165,-5.5163,-5.5162,-5.516,-5.521,-5.5212,-5.5215,0,0,0,0,0,0,0,0,0,0,0,0,0,-5.5014,-5.5016,-5.5142,-5.5142,-5.5143,-5.5193,-5.5194,-5.5195,-5.5165,-5.5163,-5.5161,-5.516,-5.5209,-5.5212,-5.5215,0,0,0,0,0,0,0,0,0,0,0,0,0,-5.5068,-5.5017,-5.5141,-5.5134,-5.5134,-5.5193,-5.5194,-5.5195,-5.5165,-5.5163,-5.5161,-5.5159,-5.5208,-5.5212,-5.5215,-5.5284,0,0,-5.5228,-5.5229,0,0,0,0,0,0,0,0,-5.5065,-5.5072,-5.5135,-5.5135,-5.5135,-5.517,-5.5167,-5.5225,-5.5166,-5.5153,-5.516,-5.5158,-5.5198,-5.5203,-5.5217,-5.5286,-5.5288,-5.5228,-5.523,-5.5232,-5.5233,0,0,0,0,0,0,0,-5.5061,-5.507,-5.5162,-5.5135,-5.5136,-5.5127,-5.5133,-5.5178,-5.5187,-5.5154,-5.5152,-5.5159,-5.5198,-5.5213,-5.5218,-5.5289,-5.5228,-5.5231,-5.5234,-5.5235,-5.5417,-5.5419,0,0,0,0,0,0,-5.5058,-5.5067,-5.516,-5.5164,-5.5094,-5.5131,-5.5137,-5.5161,-5.5187,-5.5188,-5.5161,-5.5157,-5.5208,-5.5213,-5.522,-5.5302,-5.5232,-5.5236,-5.5238,-5.5415,-5.5418,-5.542,0,0,0,0,0,0,-5.5056,-5.5067,-5.5158,-5.5115,-5.5126,-5.5136,-5.5163,-5.5163,-5.5179,-5.5192,-5.5193,-5.5175,-5.5206,-5.5214,-5.5268,-5.5303,-5.5238,-5.5241,-5.5412,-5.5416,-5.5419,-5.5466,0,0,0,0,0,0,-5.5052,-5.5066,-5.5093,-5.5116,-5.5128,-5.5207,-5.5165,-5.5166,-5.5186,-5.5182,-5.5205,-5.5207,-5.5205,-5.5263,-5.5272,-5.5307,-5.5244,-5.5409,-5.5414,-5.5418,-5.5461,-5.5471,-5.5479,0,0,0,0,0,-5.5048,-5.5103,-5.5094,-5.5105,-5.5162,-5.5209,-5.5216,-5.5214,-5.5189,-5.5216,-5.5224,-5.5206,-5.5298,-5.5269,-5.5279,-5.5316,-5.5407,-5.5412,-5.5418,-5.5457,-5.5469,-5.5478,0,0,0,0,0,0,-5.5081,-5.5105,-5.5096,-5.5161,-5.5183,-5.5204,-5.5237,-5.5226,-5.5255,-5.525,-5.5244,-5.525,-5.5307,-5.5317,-5.5284,-5.5383,-5.5348,-5.5356,-5.5375,-5.5386,-5.5394,-5.539,-5.5248,0,0,0,0,0,-5.5097,-5.5134,-5.5153,-5.5208,-5.522,-5.5227,-5.5247,-5.5244,-5.5266,-5.5275,-5.5287,-5.5309,-5.5343,-5.5365,-5.5396,-5.5463,-5.5467,-5.5493,-5.5502,-5.5509,-5.5516,-5.5552,-5.5563,-5.5438,-5.5438,-5.5438,0,0,-5.5128,-5.5146,-5.5169,-5.5215,-5.5232,-5.527,-5.5235,-5.5276,-5.5304,-5.5281,-5.5334,-5.5344,-5.5367,-5.5429,-5.5456,-5.5438,-5.5551,-5.5516,-5.5522,-5.5524,-5.5559,-5.557,-5.5581,-5.5442,-5.5441,-5.5441,0,0,-5.5204,-5.5222,-5.527,-5.5289,-5.5316,-5.532,-5.5332,-5.5355,-5.5361,-5.5414,-5.5398,-5.5431,-5.5489,-5.5507,-5.5523,-5.5609,-5.5594,-5.5619,-5.5664,-5.57,-5.5709,-5.5718,-5.5748,-5.5759,-5.5626,-5.5626,-5.5626,0,-5.5239,-5.5297,-5.5296,-5.534,-5.536,-5.5343,-5.5391,-5.5409,-5.5444,-5.5458,-5.5439,-5.5512,-5.5527,-5.5592,-5.5613,-5.5627,-5.564,-5.5616,-5.5708,-5.5717,-5.5725,-5.5754,-5.5765,-5.5629,-5.5629,-5.5628,-5.5628,0,-5.5339,-5.538,-5.5415,-5.5452,-5.5476,-5.5522,-5.5527,-5.5552,-5.5547,-5.5553,-5.5607,-5.5625,-5.566,-5.5676,-5.567,-5.574,-5.5729,-5.5709,-5.5673,-5.574,-5.5767,-5.5778,-5.5633,-5.5632,-5.5631,-5.5631,0,0,-5.5436,-5.5474,-5.5487,-5.5504,-5.5533,-5.5564,-5.5609,-5.5645,-5.5666,-5.5692,-5.5729,-5.5779,-5.5762,-5.5781,-5.5778,-5.5809,-5.5875,-5.5785,-5.5786,-5.5801,-5.5954,-5.5968,-5.5981,-5.5866,-5.5868,-5.587,-5.5952,0,-5.5515,-5.5595,-5.5596,-5.5669,-5.5706,-5.5691,-5.573,-5.5752,-5.576,-5.5792,-5.58,-5.5836,-5.581,-5.5822,-5.5852,-5.5861,-5.5906,-5.5855,-5.59,-5.5901,-5.5893,-5.5995,-5.601,-5.6086,-5.5962,-5.5964,-5.5965,0,-5.5616,-5.5647,-5.5725,-5.575,-5.5766,-5.5801,-5.5835,-5.5866,-5.589,-5.5894,-5.5916,-5.5909,-5.5954,-5.5918,-5.598,-5.5945,-5.5964,-5.5971,-5.5974,-5.5977,-5.5937,-5.6,-5.611,-5.6121,-5.5982,-5.598,-5.5979,0,-5.5679,-5.574,-5.5795,-5.581,-5.584,-5.5866,-5.588,-5.5902,-5.5924,-5.5953,-5.5968,-5.6001,-5.6019,-5.6045,-5.6046,-5.602,-5.6109,-5.6073,-5.6112,-5.6112,-5.613,-5.6129,-5.6244,-5.6144,-5.6144,-5.6143,-5.6143,0,-5.5766,-5.5814,-5.5824,-5.5857,-5.591,-5.5911,-5.5963,-5.5974,-5.5995,-5.603,-5.6019,-5.6051,-5.6052,-5.6085,-5.6086,-5.6137,-5.6145,-5.6149,-5.6148,-5.6149,-5.6149,-5.616,-5.6155,-5.6146,-5.6146,-5.6145,-5.6145,0,-5.5845,-5.5853,-5.5912,-5.5937,-5.5945,-5.5983,-5.6004,-5.6036,-5.6043,-5.6087,-5.6098,-5.6109,-5.6147,-5.6152,-5.6196,-5.6197,-5.6258,-5.6253,-5.6251,-5.6249,-5.6288,-5.6284,-5.6414,-5.6431,-5.632,-5.6321,-5.6322,0,-5.5899,-5.5936,-5.5966,-5.599,-5.6005,-5.6043,-5.6066,-5.6068,-5.6092,-5.6124,-5.6152,-5.619,-5.622,-5.6282,-5.6294,-5.6328,-5.6322,-5.6365,-5.6327,-5.6327,-5.6322,-5.632,-5.6323,-5.6372,-5.6374,-5.6375,-5.6375,0,-5.5995,-5.5998,-5.6032,-5.6069,-5.6097,-5.6125,-5.6152,-5.6171,-5.6177,-5.6205,-5.6245,-5.6269,-5.6315,-5.6353,-5.6387,-5.64,-5.6388,-5.6388,-5.6399,-5.6399,-5.6397,-5.6398,-5.627,-5.6384,-5.6383,-5.6383,-5.6382,-5.6382,-5.6063,-5.6095,-5.6122,-5.6161,-5.6182,-5.6207,-5.6239,-5.6251,-5.6285,-5.6324,-5.6323,-5.6367,-5.6392,-5.6436,-5.6452,-5.6486,-5.6472,-5.6487,-5.6491,-5.6495,-5.6499,-5.6392,-5.6492,-5.6492,-5.6492,-5.6492,-5.6491,0,-5.6157,-5.6175,-5.6211,-5.6249,-5.628,-5.6269,-5.6298,-5.6324,-5.6364,-5.6388,-5.6419,-5.6466,-5.6502,-5.6518,-5.6553,-5.6578,-5.6574,-5.6587,-5.6585,-5.6588,-5.651,-5.6497,-5.659,-5.659,-5.659,-5.659,-5.659,-5.659,-5.621,-5.6265,-5.6271,-5.6336,-5.6352,-5.6397,-5.6414,-5.6438,-5.6457,-5.651,-5.6542,-5.6552,-5.6573,-5.661,-5.6643,-5.6647,-5.666,-5.6676,-5.6677,-5.6603,-5.6593,-5.6584,-5.6572,-5.6679,-5.6679,-5.6752,-5.6753,-5.6754]}]]